This is the latest recevied weather packets stored in our database for station/object K7AEL. If no packets are shown the sender has not sent any weather packets the latest 10 day(s).
| Time | Temp. | Humidity | Pressure | Rain* | Wind** | Luminosity | Snow |
|---|---|---|---|---|---|---|---|
| 1777958006 | 15° C | 85% | 1015.5 hPa | 0 mm | - | 0 W/m² | - |
| 1777957704 | 15° C | 85% | 1015.5 hPa | 1.78 mm | - | 0 W/m² | - |
| 1777957403 | 15° C | 85% | 1015.4 hPa | 1.78 mm | - | 0 W/m² | - |
| 1777957098 | 15° C | 85% | 1015.6 hPa | 0 mm | - | 0 W/m² | - |
| 1777956796 | 15° C | 85% | 1015.5 hPa | 0 mm | - | 0 W/m² | - |
| 1777956493 | 15° C | 85% | 1015.6 hPa | 0 mm | - | 0 W/m² | - |
| 1777956189 | 15° C | 85% | 1015.4 hPa | 0 mm | - | 0 W/m² | - |
| 1777955885 | 14.44° C | 85% | 1015.4 hPa | 0 mm | - | 0 W/m² | - |
| 1777955582 | 14.44° C | 85% | 1015.6 hPa | 0 mm | - | 0 W/m² | - |
| 1777955278 | 14.44° C | 84% | 1015.5 hPa | 1.27 mm | - | 0 W/m² | - |
| 1777954976 | 14.44° C | 83% | 1015.8 hPa | 1.27 mm | - | 0 W/m² | - |
| 1777954672 | 14.44° C | 82% | 1015.9 hPa | 1.78 mm | - | 0 W/m² | - |
| 1777954369 | 14.44° C | 82% | 1015.9 hPa | 1.78 mm | - | 0 W/m² | - |
| 1777954067 | 15° C | 80% | 1015.9 hPa | 1.27 mm | - | 0 W/m² | - |
| 1777953764 | 15° C | 77% | 1016 hPa | 3.05 mm | - | 0 W/m² | - |
| 1777953461 | 15.56° C | 74% | 1015.9 hPa | 1.78 mm | - | 0 W/m² | - |
| 1777953157 | 15.56° C | 69% | 1015.8 hPa | 0 mm | - | 0 W/m² | - |
| 1777952854 | 16.11° C | 67% | 1015.8 hPa | 0 mm | - | 0 W/m² | - |
| 1777952551 | 16.67° C | 66% | 1015.6 hPa | 0 mm | - | 0 W/m² | - |
| 1777952247 | 16.67° C | 64% | 1015.5 hPa | 0 mm | - | 0 W/m² | - |
| 1777951945 | 17.22° C | 59% | 1015.5 hPa | 0 mm | - | 0 W/m² | - |
| 1777951643 | 16.67° C | 59% | 1015.1 hPa | 0 mm | - | 0 W/m² | - |
| 1777951338 | 16.67° C | 59% | 1014.9 hPa | 0 mm | - | 0 W/m² | - |
| 1777951036 | 17.22° C | 58% | 1015 hPa | 0 mm | - | 0 W/m² | - |
| 1777950732 | 17.22° C | 58% | 1014.4 hPa | 0 mm | - | 0 W/m² | - |
* Rain latest hour (hover to see other rain measurements)
** Current wind speed in m/s (hover to see current wind gust speed)